| time (UTC) | temp F | wind direction | speed MPH | gust MPH | rain 1hr in | rain 24hr in | rain mn in | humidity % | barometer mb |
| 20260507094517 | 45 | 302 | 0.0 | 0.0 | 0.00 | 0.46 | 0.04 | 94 | 1011.7 |
| 20260507093017 | 45 | 302 | 0.0 | 0.0 | 0.02 | 0.46 | 0.04 | 94 | 1011.7 |
| 20260507091516 | 46 | 310 | 0.0 | 3.0 | 0.02 | 0.46 | 0.04 | 94 | 1011.7 |
| 20260507090020 | 46 | 283 | 1.0 | 4.0 | 0.02 | 0.46 | 0.04 | 94 | 1011.8 |
| 20260507084513 | 47 | 336 | 0.0 | 2.0 | 0.02 | 0.47 | 0.04 | 94 | 1011.5 |
| 20260507083008 | 47 | 336 | 0.0 | 0.0 | 0.01 | 0.45 | 0.02 | 94 | 1011.4 |
| 20260507081515 | 47 | 336 | 0.0 | 0.0 | 0.01 | 0.45 | 0.02 | 94 | 1011.5 |
| 20260507080008 | 47 | 336 | 0.0 | 0.0 | 0.01 | 0.45 | 0.02 | 94 | 1011.5 |
| 20260507074611 | 47 | 336 | 0.0 | 0.0 | 0.01 | 0.45 | 0.02 | 94 | 1011.4 |
| 20260507073005 | 47 | 336 | 0.0 | 0.0 | 0.00 | 0.44 | 0.01 | 93 | 1011.4 |
| 20260507071507 | 47 | 336 | 0.0 | 0.0 | 0.00 | 0.44 | 0.01 | 93 | 1011.4 |
| 20260507070010 | 47 | 336 | 0.0 | 0.0 | 0.00 | 0.44 | 0.01 | 93 | 1011.2 |
| 20260507064507 | 47 | 336 | 0.0 | 0.0 | 0.00 | 0.44 | 0.01 | 93 | 1011.3 |
| 20260507063004 | 47 | 336 | 0.0 | 0.0 | 0.00 | 0.44 | 0.01 | 93 | 1011.2 |
| 20260507061504 | 47 | 336 | 0.0 | 0.0 | 0.00 | 0.44 | 0.01 | 93 | 1011.4 |
| 20260507060002 | 47 | 336 | 0.0 | 0.0 | 0.00 | 0.44 | 0.01 | 93 | 1011.7 |
| 20260507054501 | 47 | 336 | 0.0 | 1.0 | 0.00 | 0.44 | 0.01 | 93 | 1012.0 |
| 20260507053101 | 47 | 336 | 0.0 | 1.0 | 0.00 | 0.44 | 0.01 | 94 | 1012.0 |
| 20260507051600 | 47 | 336 | 0.0 | 4.0 | 0.01 | 0.44 | 0.01 | 94 | 1012.0 |
| 20260507050059 | 48 | 330 | 1.0 | 3.0 | 0.01 | 0.44 | 0.01 | 94 | 1011.9 |
| 20260507044600 | 48 | 360 | 1.0 | 3.0 | 0.01 | 0.44 | 0.01 | 94 | 1011.7 |
| 20260507043053 | 48 | 355 | 1.0 | 2.0 | 0.01 | 0.44 | 0.01 | 94 | 1011.7 |
| 20260507041556 | 48 | 348 | 0.0 | 2.0 | 0.01 | 0.43 | 0.00 | 94 | 1011.3 |
| 20260507040045 | 49 | 348 | 1.0 | 3.0 | 0.01 | 0.43 | 0.00 | 94 | 1011.2 |
| 20260507034546 | 49 | 296 | 2.0 | 5.0 | 0.01 | 0.43 | 0.43 | 94 | 1011.3 |
| 20260507033042 | 50 | 334 | 2.0 | 4.0 | 0.01 | 0.43 | 0.43 | 94 | 1010.9 |
| 20260507031541 | 50 | 336 | 1.0 | 3.0 | 0.00 | 0.42 | 0.42 | 94 | 1011.9 |
| 20260507030135 | 50 | 296 | 0.0 | 0.0 | 0.00 | 0.42 | 0.42 | 94 | 1011.3 |
| 20260507024540 | 50 | 296 | 0.0 | 4.0 | 0.01 | 0.42 | 0.42 | 94 | 1011.1 |
| 20260507023032 | 51 | 328 | 2.0 | 4.0 | 0.01 | 0.42 | 0.42 | 94 | 1011.2 |
| 20260507021529 | 51 | 332 | 0.0 | 0.0 | 0.01 | 0.42 | 0.42 | 94 | 1011.2 |
| 20260507020028 | 51 | 332 | 0.0 | 0.0 | 0.01 | 0.42 | 0.42 | 94 | 1010.5 |
| 20260507014538 | 51 | 331 | 0.0 | 1.0 | 0.01 | 0.41 | 0.41 | 93 | 1010.8 |
| 20260507013025 | 52 | 332 | 0.0 | 3.0 | 0.01 | 0.41 | 0.41 | 93 | 1010.5 |
| 20260507011523 | 52 | 315 | 0.0 | 0.0 | 0.01 | 0.41 | 0.41 | 93 | 1010.0 |
| 20260507010022 | 52 | 315 | 0.0 | 0.0 | 0.01 | 0.41 | 0.41 | 93 | 1010.3 |
| 20260507004521 | 52 | 319 | 0.0 | 0.0 | 0.00 | 0.40 | 0.40 | 93 | 1010.2 |
| 20260507003020 | 52 | 319 | 0.0 | 0.0 | 0.01 | 0.40 | 0.40 | 93 | 1009.8 |
| 20260507001524 | 53 | 320 | 0.0 | 0.0 | 0.01 | 0.40 | 0.40 | 93 | 1010.0 |
| 20260507000026 | 53 | 320 | 0.0 | 0.0 | 0.01 | 0.40 | 0.40 | 93 | 1010.2 |
| 20260506234516 | 53 | 320 | 0.0 | 0.0 | 0.01 | 0.40 | 0.40 | 93 | 1010.2 |
| 20260506233016 | 53 | 320 | 0.0 | 2.0 | 0.01 | 0.39 | 0.39 | 92 | 1010.1 |
| 20260506231514 | 53 | 320 | 1.0 | 2.0 | 0.02 | 0.39 | 0.39 | 92 | 1010.2 |
| 20260506230011 | 54 | 320 | 0.0 | 1.0 | 0.02 | 0.39 | 0.39 | 92 | 1009.9 |
| 20260506224510 | 54 | 320 | 0.0 | 0.0 | 0.02 | 0.39 | 0.39 | 92 | 1009.6 |
| 20260506223008 | 54 | 320 | 0.0 | 2.0 | 0.01 | 0.38 | 0.38 | 91 | 1009.6 |
| 20260506221506 | 55 | 323 | 1.0 | 3.0 | 0.00 | 0.37 | 0.37 | 91 | 1009.6 |
| 20260506220015 | 56 | 302 | 0.0 | 2.0 | 0.00 | 0.37 | 0.37 | 91 | 1009.3 |
| 20260506214506 | 56 | 326 | 0.0 | 2.0 | 0.00 | 0.37 | 0.37 | 91 | 1009.0 |
| 20260506213004 | 56 | 355 | 0.0 | 2.0 | 0.00 | 0.37 | 0.37 | 91 | 1009.0 |
| 20260506211507 | 56 | 360 | 0.0 | 5.0 | 0.00 | 0.37 | 0.37 | 90 | 1008.6 |
| 20260506210005 | 57 | 330 | 0.0 | 2.0 | 0.00 | 0.37 | 0.37 | 92 | 1008.3 |
| 20260506204559 | 57 | 330 | 1.0 | 4.0 | 0.01 | 0.37 | 0.37 | 92 | 1008.3 |
| 20260506203058 | 56 | 334 | 2.0 | 4.0 | 0.01 | 0.37 | 0.37 | 92 | 1008.1 |
| 20260506201556 | 57 | 360 | 1.0 | 8.0 | 0.01 | 0.37 | 0.37 | 91 | 1007.8 |
| 20260506200056 | 58 | 329 | 1.0 | 4.0 | 0.01 | 0.37 | 0.37 | 91 | 1007.8 |
| 20260506194621 | 58 | 345 | 2.0 | 5.0 | 0.00 | 0.36 | 0.36 | 90 | 1007.5 |
| 20260506193103 | 59 | 344 | 1.0 | 3.0 | 0.00 | 0.36 | 0.36 | 91 | 1007.2 |
| 20260506191553 | 59 | 334 | 0.0 | 4.0 | 0.00 | 0.36 | 0.36 | 90 | 1007.2 |
| 20260506190055 | 60 | 328 | 1.0 | 4.0 | 0.00 | 0.36 | 0.36 | 89 | 1007.3 |
| 20260506184552 | 60 | 355 | 1.0 | 4.0 | 0.00 | 0.36 | 0.36 | 88 | 1007.2 |
| 20260506183051 | 60 | 309 | 0.0 | 3.0 | 0.00 | 0.36 | 0.36 | 89 | 1007.1 |
| 20260506181551 | 60 | 287 | 0.0 | 5.0 | 0.01 | 0.36 | 0.36 | 88 | 1007.2 |
| 20260506174552 | 60 | 293 | 1.0 | 6.0 | 0.01 | 0.36 | 0.36 | 90 | 1007.3 |
| 20260506173055 | 60 | 312 | 2.0 | 7.0 | 0.01 | 0.36 | 0.36 | 90 | 1007.2 |
| 20260506171551 | 61 | 315 | 1.0 | 4.0 | 0.00 | 0.35 | 0.35 | 89 | 1007.4 |
| 20260506164546 | 61 | 5 | 2.0 | 7.0 | 0.00 | 0.35 | 0.35 | 88 | 1007.1 |
| 20260506163105 | 61 | 317 | 1.0 | 3.0 | 0.00 | 0.35 | 0.35 | 88 | 1007.0 |
| 20260506161545 | 61 | 290 | 1.0 | 5.0 | 0.00 | 0.35 | 0.35 | 87 | 1007.0 |
| 20260506160044 | 61 | 351 | 2.0 | 10.0 | 0.00 | 0.35 | 0.35 | 87 | 1006.8 |
| 20260506154604 | 61 | 193 | 2.0 | 12.0 | 0.00 | 0.35 | 0.35 | 89 | 1006.6 |
| 20260506153051 | 60 | 153 | 1.0 | 10.0 | 0.00 | 0.35 | 0.35 | 92 | 1006.5 |
| 20260506151546 | 60 | 342 | 1.0 | 6.0 | 0.00 | 0.35 | 0.35 | 93 | 1006.4 |
| 20260506150042 | 59 | 130 | 0.0 | 4.0 | 0.00 | 0.35 | 0.35 | 94 | 1006.4 |
| 20260506144540 | 58 | 342 | 0.0 | 2.0 | 0.00 | 0.35 | 0.35 | 94 | 1006.3 |
| 20260506143048 | 58 | 145 | 0.0 | 3.0 | 0.00 | 0.35 | 0.35 | 94 | 1006.4 |
| 20260506141541 | 57 | 144 | 1.0 | 4.0 | 0.01 | 0.35 | 0.35 | 94 | 1005.8 |
| 20260506140039 | 57 | 161 | 1.0 | 3.0 | 0.01 | 0.35 | 0.35 | 93 | 1006.1 |
| 20260506134537 | 57 | 161 | 0.0 | 5.0 | 0.01 | 0.35 | 0.35 | 93 | 1006.2 |
| 20260506133039 | 56 | 173 | 0.0 | 0.0 | 0.02 | 0.35 | 0.35 | 94 | 1006.2 |
| 20260506131537 | 56 | 157 | 0.0 | 3.0 | 0.03 | 0.34 | 0.34 | 93 | 1006.2 |
| 20260506130036 | 56 | 141 | 2.0 | 4.0 | 0.07 | 0.34 | 0.34 | 93 | 1006.1 |
| 20260506124534 | 56 | 154 | 0.0 | 3.0 | 0.11 | 0.34 | 0.34 | 93 | 1006.1 |
| 20260506123036 | 55 | 153 | 0.0 | 3.0 | 0.14 | 0.33 | 0.33 | 93 | 1006.2 |
| 20260506121540 | 55 | 148 | 0.0 | 3.0 | 0.12 | 0.30 | 0.30 | 93 | 1006.1 |
| 20260506120033 | 55 | 140 | 2.0 | 5.0 | 0.09 | 0.27 | 0.27 | 93 | 1005.7 |
| 20260506114541 | 55 | 153 | 0.0 | 3.0 | 0.06 | 0.22 | 0.22 | 93 | 1005.8 |
| 20260506113031 | 55 | 160 | 2.0 | 5.0 | 0.08 | 0.19 | 0.19 | 93 | 1005.7 |
| 20260506111536 | 55 | 150 | 0.0 | 0.0 | 0.07 | 0.18 | 0.18 | 93 | 1005.6 |
| 20260506110032 | 55 | 150 | 0.0 | 0.0 | 0.10 | 0.18 | 0.18 | 92 | 1005.6 |
| 20260506104528 | 55 | 149 | 0.0 | 0.0 | 0.10 | 0.15 | 0.15 | 92 | 1005.6 |
| 20260506103027 | 55 | 149 | 0.0 | 0.0 | 0.08 | 0.11 | 0.11 | 92 | 1005.9 |
| 20260506101529 | 55 | 149 | 0.0 | 2.0 | 0.09 | 0.11 | 0.11 | 92 | 1005.8 |
| 20260506100025 | 55 | 155 | 0.0 | 5.0 | 0.07 | 0.08 | 0.08 | 91 | 1006.0 |